sat.trackr.live / text

‹ back to catalog

STARLINK-4577

NORAD 53564 · 2022-101AP

PAYLOAD ACTIVE UNKNOWN

§ Identity

Operator
Country
US
Launch date
2022-08-19
Launch site
AFETR
Launch vehicle
Mass (kg)
RCS (m²)

Purposes: comms

External: N2YO · Heavens-Above · Gunter

§ Orbital elements

Epoch: 2026-09-19T14:29:38.182560Z

Period
93.85 min
Inclination
53.1586°
Eccentricity
0.0001334
Mean motion
15.34400252 rev/d
Perigee alt
461.8 km
Apogee alt
463.6 km
Semi-major
6,840.8 km
B*
-6.8454e-5
RAAN
247.9370°
Arg perigee
85.5808°
Mean anomaly
274.5347°
Rev number
22,593

§ Raw data

STARLINK-45771 53564U 22101AP  26262.60391415 -.00002688  00000+0 -68454-4 0  99922 53564  53.1586 247.9370 0001334  85.5808 274.5347 15.34400252225939

JSON: /api/v1/satellites/53564 · /tle

For live sub-satellite position, see the globe view (requires WebGL).

§ Visibility from observer

Set your observer location to see the next 7 days of passes ≥ 10°. The values pass through the URL so the page stays shareable.

No JS? Fill the form by hand. The geolocation button needs JavaScript.